Flag for U.S.A. Weather past 2 weeks in Victorville, California, U.S.A.

Now
36 °F

Chilly.


Feels Like: 32 °F
Forecast: 34 / 53 °F
Wind: 5 mph from South

Location: George Air Force Base / Victorvi

Current Time: Dec 18, 2014 at 7:02:28 AM

Latest Report: Dec 18, 2014 at 6:15 AM


Visibility: 10 mi

Pressure: 30.13 "Hg

Humidity: 93%

Dew point: 34 °F

Location of VictorvilleLocation

Historic Weather in Victorville — Graph

°F

Victorville temperature yesterday

Maximum temperature yesterday: 50 °F (at 11:35 AM)
Minimum temperature yesterday: 39 °F (at 11:55 PM)
Average temperature yesterday: 45 °F

Past Weeks' High & Low Weather Summary

 TemperatureHumidityPressure
High64 °F (Dec 9, 1:55 PM)100% (Dec 3, 7:55 AM)30.32 "Hg (Dec 3, 7:55 AM)
Low32 °F (Dec 14, 4:55 AM)32% (Dec 9, 2:55 PM)29.78 "Hg (Dec 12, 4:15 AM)
Average48 °F76%30.08 "Hg
* Reported Dec 3 5:15 AM — Dec 18 5:55 AM, Victorville, Weather by CustomWeather, © 2014

Note: Actual official high and low records may vary slightly from our data, if they occured in-between our weather recording intervals... More about our weather records

Advertising

Victorville weather history for previous 24 hours

 ConditionsComfort  
Time TempWeatherWind HumidityBarometerVisibility
5:55 AM
Dec 18
37 °FChilly.6 mph87%30.12 "Hg10 mi
5:35 AM37 °FChilly.6 mph87%30.12 "Hg10 mi
5:15 AM37 °FChilly.7 mph93%30.11 "Hg10 mi
4:55 AM37 °FChilly.7 mph93%30.10 "Hg10 mi
4:35 AM37 °FChilly.6 mph93%30.10 "Hg10 mi
4:15 AM36 °FChilly.6 mph93%30.10 "Hg7 mi
3:55 AM36 °FChilly.6 mph93%30.10 "Hg10 mi
3:35 AM36 °FChilly.7 mph87%30.10 "Hg10 mi
3:15 AM36 °FChilly.5 mph81%30.10 "Hg10 mi
2:15 AM36 °FChilly.5 mph87%30.10 "Hg10 mi
1:55 AM37 °FChilly.7 mph81%30.10 "Hg10 mi
1:15 AM39 °FClear.5 mph75%30.10 "Hg10 mi
12:55 AM39 °FChilly.8 mph75%30.10 "Hg10 mi
12:35 AM39 °FChilly.7 mph81%30.10 "Hg10 mi
12:15 AM39 °FChilly.3 mph81%30.10 "Hg10 mi
11:55 PM
Dec 17
39 °FClear.6 mph81%30.10 "Hg10 mi
11:15 PM41 °FClear.3 mph76%30.10 "Hg10 mi
10:55 PM41 °FPassing clouds.6 mph81%30.11 "Hg10 mi
10:35 PM43 °FPassing clouds.5 mph71%30.11 "Hg10 mi
10:15 PM43 °FMostly cloudy.8 mph71%30.11 "Hg10 mi
9:55 PM43 °FOvercast.No wind76%30.11 "Hg10 mi
9:35 PM43 °FOvercast.No wind76%30.10 "Hg10 mi
9:15 PM43 °FMostly cloudy.No wind76%30.10 "Hg10 mi
8:55 PM43 °FOvercast.No wind76%30.09 "Hg10 mi
8:35 PM43 °FOvercast.3 mph76%30.08 "Hg10 mi
8:15 PM43 °FOvercast.No wind76%30.09 "Hg10 mi
7:15 PM45 °FPassing clouds.3 mph71%30.08 "Hg10 mi
6:55 PM45 °FClear.3 mph71%30.09 "Hg10 mi
6:35 PM45 °FClear.3 mph71%30.08 "Hg10 mi
6:15 PM45 °FClear.6 mph71%30.07 "Hg10 mi
5:55 PM45 °FClear.9 mph71%30.07 "Hg10 mi
5:15 PM46 °FClear.9 mph71%30.05 "Hg10 mi
4:35 PM46 °FScattered clouds.10 mph76%30.04 "Hg10 mi
4:15 PM48 °FPartly sunny.12 mph66%30.04 "Hg10 mi
3:55 PM48 °FPartly sunny.8 mph66%30.04 "Hg10 mi
3:35 PM48 °FBroken clouds.10 mph66%30.03 "Hg10 mi
3:15 PM48 °FPartly sunny.12 mph66%30.04 "Hg10 mi
2:15 PM50 °FBroken clouds.13 mph62%30.03 "Hg10 mi
1:55 PM50 °FBroken clouds.12 mph62%30.03 "Hg10 mi
1:35 PM50 °FPartly sunny.9 mph62%30.03 "Hg10 mi
1:15 PM50 °FBroken clouds.9 mph62%30.02 "Hg10 mi
12:55 PM50 °FScattered clouds.7 mph62%30.03 "Hg10 mi
12:35 PM50 °FScattered clouds.8 mph62%30.02 "Hg10 mi
12:15 PM50 °FScattered clouds.8 mph67%30.03 "Hg10 mi
11:55 AM50 °FScattered clouds.12 mph67%30.03 "Hg10 mi
11:35 AM50 °FSunny.9 mph67%30.03 "Hg10 mi
11:15 AM48 °FScattered clouds.9 mph71%30.04 "Hg10 mi
10:55 AM48 °FScattered clouds.9 mph71%30.05 "Hg10 mi
10:35 AM48 °FScattered clouds.10 mph71%30.05 "Hg10 mi
9:55 AM46 °FScattered clouds.6 mph87%30.05 "Hg10 mi
9:35 AM46 °FBroken clouds.5 mph87%30.04 "Hg10 mi
9:15 AM45 °FMostly cloudy.5 mph87%30.03 "Hg10 mi
8:55 AM45 °FMore clouds than sun.No wind87%30.03 "Hg10 mi
8:35 AM45 °FOvercast.No wind81%30.02 "Hg10 mi
8:15 AM43 °FDrizzle. More clouds than sun.No wind93%30.01 "Hg10 mi
7:55 AM43 °FCloudy.No wind93%30.01 "Hg10 mi
7:35 AM43 °FMostly cloudy.5 mph93%30.00 "Hg10 mi
7:15 AM43 °FDrizzle. Partly sunny.7 mph93%29.99 "Hg10 mi
Weather by CustomWeather, © 2014

See weather overviewHow to use our weather pages